This is the latest recevied weather packets stored in our database for station/object YF9UAG-17. If no packets are shown the sender has not sent any weather packets the latest 10 day(s).
| Time | Temp. | Humidity | Pressure | Rain* | Wind** | Luminosity | Snow |
|---|---|---|---|---|---|---|---|
| 1787616127 | 26.11° C | 59% | 1034.8 hPa | - | - | - | - |
| 1787615523 | 26.11° C | 59% | 1034.7 hPa | - | - | - | - |
| 1787614920 | 25.56° C | 58% | 1034.8 hPa | - | - | - | - |
| 1787614316 | 25.56° C | 52% | 1034.7 hPa | - | - | - | - |
| 1787613713 | 25° C | 49% | 1034.6 hPa | - | - | - | - |
| 1787613110 | 25° C | 49% | 1034.4 hPa | - | - | - | - |
| 1787612507 | 25° C | 49% | 1034.3 hPa | - | - | - | - |
| 1787611904 | 25° C | 49% | 1034.2 hPa | - | - | - | - |
| 1787611301 | 25.56° C | 47% | 1034.1 hPa | - | - | - | - |
| 1787610698 | 25.56° C | 48% | 1033.9 hPa | - | - | - | - |
| 1787610095 | 25.56° C | 48% | 1033.9 hPa | - | - | - | - |
| 1787609492 | 25.56° C | 48% | 1033.9 hPa | - | - | - | - |
| 1787608888 | 26.11° C | 48% | 1033.8 hPa | - | - | - | - |
| 1787608285 | 26.11° C | 49% | 1033.7 hPa | - | - | - | - |
| 1787607682 | 26.11° C | 49% | 1033.6 hPa | - | - | - | - |
| 1787607078 | 26.11° C | 49% | 1033.5 hPa | - | - | - | - |
| 1787606475 | 26.11° C | 49% | 1033.5 hPa | - | - | - | - |
| 1787605870 | 26.11° C | 49% | 1033.5 hPa | - | - | - | - |
| 1787605267 | 26.11° C | 49% | 1033.3 hPa | - | - | - | - |
| 1787604664 | 26.11° C | 49% | 1033.2 hPa | - | - | - | - |
| 1787604061 | 26.67° C | 48% | 1033.3 hPa | - | - | - | - |
| 1787603458 | 26.67° C | 48% | 1033.1 hPa | - | - | - | - |
| 1787602854 | 26.67° C | 48% | 1033 hPa | - | - | - | - |
| 1787602251 | 26.67° C | 48% | 1033 hPa | - | - | - | - |
| 1787601647 | 26.67° C | 48% | 1033 hPa | - | - | - | - |
* Rain since midnight (hover to see other rain measurements)
** Current wind speed in m/s (hover to see current wind gust speed)